Regional Weather Roundup
Issued by NWS

Home | Current Version | Previous Version | Graphics & Text | Print | Product List | Glossary On
Versions: 1 2 3 4 5 6 7 8 9 10 11 12 13 14 15 16 17 18 19 20 21 22 23 24 25 26 27 28 29 30 31 32 33 34 35 36 37 38 39 40 41 42 43 44 45 46 47 48 49 50
000
ASUS43 KDTX 250901
RWRMI
MICHIGAN HOURLY REGIONAL WEATHER ROUNDUP
NATIONAL WEATHER SERVICE DETROIT/PONTIAC MI
400 AM EST SUN FEB 25 2018

NOTE: "FAIR" INDICATES FEW OR NO CLOUDS BELOW 12,000 FEET WITH NO
SIGNIFICANT WEATHER AND/OR OBSTRUCTION TO VISIBILITY.

MIZ047>049-052>055-059>063-066>070-074>076-081>083-251000-
SOUTHEAST LOWER MICHIGAN

CITY           SKY/WX    TMP DP  RH WIND       PRES   REMARKS
ADRIAN         LGT RAIN  39  38  96 S7        29.50F FOG     WCI  34
ALMA           LGT RAIN  40  40 100 S9        29.42F WCI  33
ANN ARBOR      LGT RAIN  41  41 100 E6        29.48F FOG
BAD AXE        CLOUDY    37  36  96 SE14G25   29.47F FOG     WCI  28
CARO           CLOUDY    40  40  98 SE13G24   29.44F FOG     WCI  33
DETROIT CITY   LGT RAIN  40  39  97 SE9       29.52F FOG     WCI  34
DETROIT        LGT RAIN  42  42 100 SE7       29.51F VSB 1/2
FLINT          LGT RAIN  41  40  96 SE18      29.44F FOG
GROSSE ILE     LGT RAIN  43  43  99 SE9       29.51F
HILLSDALE      DRIZZLE   43  41  93 S10       29.49R
HOWELL         DRIZZLE   41  41 100 SE13      29.45F

CITY           SKY/WX    TMP DP  RH WIND       PRES   REMARKS
JACKSON        CLOUDY    42  42 100 SE10      29.46F FOG
LAMBERTVILLE   DRIZZLE   39  38  97 S6        29.51F WCI  35
LANSING        CLOUDY    44  43  96 S16G25    29.43F FOG
LAPEER         FOG       41  40  98 S12G21    29.48F VSB 1
MASON          CLOUDY    44  40  88 S13G20    29.44F FOG
MT. CLEMENS    LGT RAIN  40  40 100 SE16      29.51F WCI  31
PONTIAC        LGT RAIN  38  38 100 SE10      29.47F VSB 3/4 WCI  31
PORT HOPE        N/A     36  34  92 SE25G40   29.47F WCI  24
PORT HURON     CLOUDY    41  39  93 SE15G30   29.53F
TRI CITIES     CLOUDY    41  39  93 SE14      29.42F FOG
MIDLAND        RAIN      37  37  99 SE5       29.41F WCI  33
TROY           LGT RAIN  39  38  95 E3        29.53F VSB 1
SAGINAW HB     CLOUDY    41  39  93 S16       29.42F FOG
$$
MIZ043>046-050>051-056>058-064>065-071>073-077>080-251000-
SOUTHWEST LOWER MICHIGAN

CITY           SKY/WX    TMP DP  RH WIND       PRES   REMARKS
BATTLE CREEK   CLOUDY    50  48  93 SW23G35   29.46S
BENTON HARBOR    N/A     40  35  83 W32G44    29.57R WCI  28
BIG RAPIDS     MIX PCPN  35  32  91 S5        29.38F WCI  30
COLDWATER      DRIZZLE   50  50 100 SW18      29.49R
FREMONT        DRIZZLE   40  37  91 S9        29.38F WCI  34
HOLLAND        CLOUDY    45  42  89 W33G47    29.47R
GRAND RAPIDS   LGT RAIN  46  44  93 S13       29.41F FOG
IONIA          DRIZZLE   42  42 100 S12G18    29.41F
KALAMAZOO      CLOUDY    50  47  89 SW17G33   29.47R
LUDINGTON      CLOUDY    39  39  99 S12       29.35F WCI  32
MARSHALL       DRIZZLE   47  47  98 S14G21    29.45F
MOUNT PLEASANT LGT RAIN  37  36  95 E3        29.41F
MUSKEGON       LGT RAIN  43  40  89 SW23G33   29.44R FOG
SOUTH HAVEN    CLOUDY    42  39  89 W28G40    29.53R
$$
MIZ016>042-251000-
NORTHERN LOWER MICHIGAN

CITY           SKY/WX    TMP DP  RH WIND       PRES   REMARKS
ALPENA         LGT RAIN  33  33 100 SE14G23   29.47F FOG     WCI  23
BEAVER ISLAND  LGT SNOW  33  32  95 SE10      29.34F WCI  25
BELLAIRE       CLOUDY    37  35  93 SE10G22   29.32F WCI  29
CADILLAC       FLURRIES  33  32  99 SE6       29.34F WCI  27
CHARLEVOIX     LGT SNOW  37  37 100 SE15G26   29.32F WCI  27
FRANKFORT      LGT RAIN  39  37  94 SE14G22   29.32F WCI  31
GAYLORD        FRZ RAIN  32  32 100 SE18G26   29.35F FOG     WCI  20
GRAYLING       MIX PCPN  34  34 100 SE17      29.36F WCI  23
HARBOR SPRINGS MIX PCPN  33  33  99 E7G21     29.34F WCI  27
HOUGHTON LAKE  RAIN      33  32  96 SE14G21   29.38F FOG     WCI  23
MANISTEE       LGT RAIN  38  36  92 VRB5G17   29.33F WCI  34
OSCODA         MIX PCPN  34  33  94 SE12G18   29.47F WCI  25
PELLSTON       RAIN      33  32  96 SE16G28   29.37F FOG     WCI  23
ROGERS CITY    MIX PCPN  32  31  95 SE15G24   29.46F WCI  22
TRAVERSE CITY  LGT RAIN  38  34  85 S8G22     29.35R FOG     WCI  32
$$
MIZ007>008-015-251000-
EASTERN UPPER MICHIGAN

CITY           SKY/WX    TMP DP  RH WIND       PRES   REMARKS
KINROSS        LGT SNOW  30  29  96 E30G39    29.37F FOG     WCI  15
MACKINAC ISLAN LGT SNOW  32  31  98 E26G45    29.37F WCI  18
NEWBERRY       CLOUDY    32  31  97 SE21G37   29.32F FOG     WCI  20
S. S. MARIE    LGT SNOW  33  29  85 E17G39    29.39F FOG     WCI  22
MUNISING         N/A     33  33 100 S8G20     29.30F WCI  26
$$
MIZ004>006-011>014-085-251000-
CENTRAL UPPER MICHIGAN

CITY           SKY/WX    TMP DP  RH WIND       PRES   REMARKS
MANISTIQUE     LGT SNOW  32  30  94 SE9       29.34F WCI  24
ESCANABA       LGT SNOW  32  31  96 SE9       29.33F FOG     WCI  24
MENOMINEE      LGT SNOW  32  31  96 S3        29.31F FOG
SAWYER-GWINN   LGT SNOW  29  27  93 S13       29.27F VSB 3/4 WCI  19
$$
MIZ001>003-009>011-084-251000-
WESTERN UPPER MICHIGAN

CITY           SKY/WX    TMP DP  RH WIND       PRES   REMARKS
IRON MOUNTAIN  LGT SNOW  30  27  88 SE5       29.25F FOG     WCI  25
HOUGHTON       LGT SNOW  28  25  88 E14       29.27F VSB 3/4 WCI  17
COPPER HARBOR    N/A     30  27  88 S8        29.32F WCI  22
IRONWOOD       LGT SNOW  28  27  96 SW3       29.26F FOG
$$

ABBREVIATIONS USED IN REMARKS
   TC - TEMPERATURE IN CELSIUS
  WCI - WIND CHILL INDEX
   HX - HEAT INDEX
  VSB - VISIBILITY




USA.gov is the U.S. government's official web portal to all federal, state and local government web resources and services.